Location: Waco, TX
(31.5480°N, 97.1670°W)
Time: 22:26:15
(UTC-05:00)

ISS - Pass Details

Date: 21 May 2017
Orbit: 401 x 408 km, 51.6° (Epoch: 24 June)

Event Time Altitude Azimuth Distance (km) Brightness Sun altitude
Rises 06:51:55 0° 316° (NW) 2,320 -0.2 3.7°
Reaches altitude 10° 06:54:00 10° 317° (NW) 1,456 -1.2 4.2°
Maximum altitude 06:57:15 80° 43° (NE) 411 -3.6 4.8°
Drops below altitude 10° 07:00:30 10° 133° (SE) 1,444 -0.6 5.5°
Sets 07:02:34 0° 134° (SE) 2,298 0.4 5.9°
